[Date Prev][Date Next][Thread Prev][Thread Next] - [Date Index][Thread Index][Author Index]
2 Line ISS Keps 3-30
- Subject: [sarex] 2 Line ISS Keps 3-30
- From: "Dave Larsen PhD" <doc@xxxxxxxxxxx>
- Date: Tue, 30 Mar 2004 03:23:48 -0800
ISS
1 25544U 98067A 04090.16719616 .00030427 00000-0 27748-3 0 4712
2 25544 51.6300 8.3805 0011039 335.3696 173.2124 15.67542288305916
----
Via the sarex mailing list at AMSAT.ORG courtesy of AMSAT-NA.
To unsubscribe, send "unsubscribe sarex" to Majordomo@amsat.org
AMSAT Home